Погода в Усть-Поче

Россия / Архангельская область     62°09′15″N   38°09′31″E
темп.,
°C
ветер,
м/с
пор.,
м/с
влажн.,
%
обл.,
%
осадки,
мм/ч
давл.,
гПа
погр.,
м
8 августа, пн
пн800:00+11юз26855 0.0 1019129
03:00+10юз258918 0.0 1020112
06:00+12юз27845 0.0 1020223
09:00+18зюз3653100 0.0 10211169
12:00+20зюз464092 0.0 10212329
15:00+18юз3651100 0.0 1022905
18:00+17зсз255899 0.0 1022316
21:00+15з1170100 0.0 102314
9 августа, вт
вт900:00+14з117695 0.0 102410
03:00+13зсз3787100 0.1 1024270
06:00+11св2598100 4.9 1025226
09:00+12сз1197100 7.0 1025240
12:00+12с239496 0.5 1026291
15:00+15с367243 0.5 1025664
18:00+16ссв35646 0.0 10251047
21:00+11св2495100 0.1 102578
10 августа, ср
ср1000:00+11ссв1193100 0.2 102515
03:00+11ссз129460 0.3 102580
06:00+11ссз129437 0.0 102587
09:00+15всв127347 0.0 1024430
12:00+20всв125032 0.0 10231206
15:00+20зсз234499 0.0 10221316
18:00+19юз125268 0.0 1022111
21:00+14зюз22676 0.0 102120
11 августа, чт
чт1100:00+14юз2768100 0.0 1021181
03:00+13юз3883100 0.0 1021197
06:00+13юз31081100 0.0 1020307
09:00+18зюз595942 0.0 1019706
12:00+22зюз694999 0.0 10181769
15:00+22зюз61050100 0.0 10171719
18:00+20зюз61353100 0.0 10161293
21:00+18зюз61359100 0.0 1014896
12 августа, пт
пт1200:00+16зюз51476100 0.3 1014716
03:00+16зюз5138023 0.3 1014608
06:00+16з411860 0.0 1015868
09:00+19з510505 0.0 10151067
12:00+22з6124110 0.0 10161677
15:00+20з5135752 0.0 10171333
18:00+19з4116268 0.0 10181228
21:00+14сз11902 0.0 101911